Location: Argonnex
(45.9500°N, 6.1333°E)
Time: 09:21:49
(UTC+00:00)

Cosmos 2266 Rocket - Pass Details

Date: 05 October 2023
Orbit: 933 x 1008 km, 82.9° (Epoch: 10 December)

Event Time Altitude Azimuth Distance (km) Brightness Sun altitude
Exits shadow 02:33:44 48° 342° (NNW) 1,293 4.6 -31.8°
Drops below altitude 10° 02:38:24 10° 4° (N) 2,796 6.7 -31.1°
Sets 02:40:59 0° 7° (N) 3,751 7.5 -30.7°
